| time (UTC) | temp F | wind direction | speed MPH | gust MPH | rain 1hr in | rain 24hr in | rain mn in | humidity % | barometer mb |
| 20260509053058 | 45 | 112 | 0.0 | 4.0 | 0.00 | 0.04 | 0.00 | 62 | 1009.4 |
| 20260509051600 | 45 | 0 | 0.0 | 3.0 | 0.00 | 0.04 | 0.00 | 61 | 1009.7 |
| 20260509050137 | 45 | 0 | 0.0 | 1.0 | 0.00 | 0.04 | 0.00 | 61 | 1009.8 |
| 20260509044603 | 45 | 98 | 0.0 | 3.0 | 0.00 | 0.04 | 0.00 | 62 | 1009.9 |
| 20260509043058 | 45 | 141 | 1.0 | 7.0 | 0.00 | 0.04 | 0.00 | 64 | 1009.9 |
| 20260509041557 | 45 | 0 | 1.0 | 6.0 | 0.00 | 0.04 | 0.00 | 66 | 1010.1 |
| 20260509040058 | 44 | 0 | 0.0 | 3.0 | 0.00 | 0.04 | 0.00 | 67 | 1009.9 |
| 20260509034557 | 45 | 81 | 1.0 | 4.0 | 0.00 | 0.04 | 0.04 | 66 | 1010.1 |
| 20260509033057 | 45 | 114 | 2.0 | 10.0 | 0.00 | 0.04 | 0.04 | 65 | 1010.1 |
| 20260509031556 | 45 | 103 | 2.0 | 6.0 | 0.00 | 0.04 | 0.04 | 66 | 1010.1 |
| 20260509030057 | 44 | 121 | 1.0 | 5.0 | 0.00 | 0.04 | 0.04 | 67 | 1010.1 |
| 20260509024600 | 44 | 119 | 1.0 | 5.0 | 0.00 | 0.04 | 0.04 | 66 | 1010.3 |
| 20260509023104 | 45 | 0 | 0.0 | 5.0 | 0.00 | 0.04 | 0.04 | 65 | 1010.3 |
| 20260509021557 | 46 | 0 | 0.0 | 2.0 | 0.00 | 0.04 | 0.04 | 64 | 1010.5 |
| 20260509020059 | 46 | 50 | 1.0 | 3.0 | 0.00 | 0.04 | 0.04 | 62 | 1010.6 |
| 20260509014557 | 47 | 0 | 0.0 | 1.0 | 0.00 | 0.04 | 0.04 | 62 | 1010.5 |
| 20260509013101 | 47 | 0 | 0.0 | 0.0 | 0.00 | 0.04 | 0.04 | 57 | 1010.4 |
| 20260509011601 | 47 | 0 | 0.0 | 0.0 | 0.00 | 0.04 | 0.04 | 56 | 1010.2 |
| 20260509010059 | 47 | 0 | 0.0 | 0.0 | 0.00 | 0.04 | 0.04 | 57 | 1010.0 |
| 20260509004559 | 48 | 0 | 0.0 | 0.0 | 0.00 | 0.04 | 0.04 | 55 | 1009.9 |
| 20260509003106 | 49 | 0 | 0.0 | 0.0 | 0.00 | 0.04 | 0.04 | 54 | 1009.6 |
| 20260509001556 | 49 | 0 | 0.0 | 0.0 | 0.00 | 0.04 | 0.04 | 54 | 1009.6 |
| 20260509000105 | 50 | 0 | 0.0 | 0.0 | 0.00 | 0.04 | 0.04 | 56 | 1009.5 |
| 20260508234559 | 51 | 0 | 0.0 | 0.0 | 0.00 | 0.04 | 0.04 | 53 | 1009.5 |
| 20260508233056 | 53 | 0 | 0.0 | 0.0 | 0.00 | 0.04 | 0.04 | 53 | 1009.4 |
| 20260508231559 | 53 | 306 | 0.0 | 3.0 | 0.00 | 0.04 | 0.04 | 44 | 1009.3 |
| 20260508230106 | 54 | 0 | 1.0 | 7.0 | 0.00 | 0.04 | 0.04 | 43 | 1009.3 |
| 20260508224555 | 56 | 313 | 2.0 | 4.0 | 0.00 | 0.04 | 0.04 | 42 | 1009.3 |
| 20260508223055 | 55 | 260 | 1.0 | 5.0 | 0.00 | 0.04 | 0.04 | 45 | 1009.2 |
| 20260508221604 | 55 | 250 | 2.0 | 7.0 | 0.00 | 0.04 | 0.04 | 43 | 1009.2 |
| 20260508220058 | 54 | 161 | 2.0 | 6.0 | 0.00 | 0.04 | 0.04 | 46 | 1009.2 |
| 20260508214608 | 54 | 213 | 2.0 | 8.0 | 0.00 | 0.04 | 0.04 | 45 | 1009.3 |
| 20260508213058 | 54 | 273 | 3.0 | 9.0 | 0.00 | 0.04 | 0.04 | 44 | 1009.4 |
| 20260508211559 | 55 | 206 | 3.0 | 11.0 | 0.00 | 0.04 | 0.04 | 45 | 1009.5 |
| 20260508210055 | 54 | 238 | 3.0 | 6.0 | 0.00 | 0.04 | 0.04 | 46 | 1009.5 |
| 20260508204603 | 54 | 227 | 3.0 | 10.0 | 0.00 | 0.04 | 0.04 | 43 | 1009.6 |
| 20260508203057 | 54 | 202 | 4.0 | 10.0 | 0.00 | 0.04 | 0.04 | 49 | 1009.9 |
| 20260508201602 | 53 | 333 | 2.0 | 7.0 | 0.00 | 0.04 | 0.04 | 55 | 1010.0 |
| 20260508200057 | 53 | 295 | 3.0 | 7.0 | 0.00 | 0.04 | 0.04 | 48 | 1010.3 |
| 20260508194623 | 52 | 211 | 5.0 | 11.0 | 0.00 | 0.04 | 0.04 | 50 | 1010.3 |
| 20260508193106 | 53 | 188 | 6.0 | 15.0 | 0.00 | 0.04 | 0.04 | 52 | 1010.4 |
| 20260508191559 | 52 | 179 | 5.0 | 12.0 | 0.00 | 0.04 | 0.04 | 55 | 1010.5 |
| 20260508190057 | 53 | 355 | 2.0 | 11.0 | 0.00 | 0.04 | 0.04 | 54 | 1010.6 |
| 20260508184600 | 51 | 273 | 6.0 | 12.0 | 0.00 | 0.04 | 0.04 | 51 | 1010.6 |
| 20260508183055 | 52 | 185 | 5.0 | 11.0 | 0.00 | 0.04 | 0.04 | 57 | 1010.7 |
| 20260508181635 | 51 | 227 | 4.0 | 10.0 | 0.00 | 0.04 | 0.04 | 59 | 1010.7 |
| 20260508180110 | 50 | 257 | 5.0 | 13.0 | 0.00 | 0.04 | 0.04 | 58 | 1010.8 |
| 20260508174603 | 49 | 254 | 4.0 | 12.0 | 0.00 | 0.04 | 0.04 | 64 | 1011.0 |
| 20260508173057 | 47 | 248 | 3.0 | 12.0 | 0.00 | 0.04 | 0.04 | 67 | 1011.2 |
| 20260508171557 | 47 | 232 | 0.0 | 11.0 | 0.00 | 0.04 | 0.04 | 70 | 1011.4 |
| 20260508170056 | 46 | 243 | 3.0 | 10.0 | 0.00 | 0.04 | 0.04 | 71 | 1011.4 |
| 20260508164559 | 47 | 204 | 5.0 | 15.0 | 0.00 | 0.04 | 0.04 | 73 | 1011.5 |
| 20260508163105 | 45 | 252 | 2.0 | 10.0 | 0.00 | 0.04 | 0.04 | 78 | 1011.6 |
| 20260508161607 | 44 | 243 | 5.0 | 11.0 | 0.00 | 0.04 | 0.04 | 79 | 1011.8 |
| 20260508160059 | 44 | 205 | 5.0 | 16.0 | 0.00 | 0.04 | 0.04 | 79 | 1011.8 |
| 20260508154559 | 43 | 261 | 4.0 | 9.0 | 0.00 | 0.04 | 0.04 | 80 | 1011.8 |
| 20260508153057 | 41 | 205 | 3.0 | 10.0 | 0.00 | 0.04 | 0.04 | 81 | 1011.7 |
| 20260508151607 | 41 | 186 | 4.0 | 10.0 | 0.00 | 0.04 | 0.04 | 81 | 1011.7 |
| 20260508150059 | 40 | 214 | 3.0 | 6.0 | 0.00 | 0.04 | 0.04 | 81 | 1011.7 |
| 20260508144559 | 40 | 226 | 3.0 | 6.0 | 0.00 | 0.04 | 0.04 | 81 | 1011.7 |
| 20260508143056 | 40 | 212 | 1.0 | 5.0 | 0.00 | 0.04 | 0.04 | 81 | 1011.7 |
| 20260508141601 | 39 | 195 | 2.0 | 6.0 | 0.00 | 0.04 | 0.04 | 80 | 1011.7 |
| 20260508140057 | 39 | 0 | 2.0 | 7.0 | 0.01 | 0.04 | 0.04 | 81 | 1011.2 |
| 20260508134604 | 39 | 252 | 2.0 | 6.0 | 0.02 | 0.04 | 0.04 | 81 | 1011.6 |
| 20260508133108 | 39 | 244 | 2.0 | 6.0 | 0.03 | 0.04 | 0.04 | 81 | 1011.7 |
| 20260508131559 | 38 | 229 | 1.0 | 5.0 | 0.04 | 0.04 | 0.04 | 81 | 1011.8 |
| 20260508130112 | 39 | 258 | 2.0 | 6.0 | 0.03 | 0.03 | 0.03 | 81 | 1011.6 |
| 20260508124557 | 39 | 238 | 1.0 | 6.0 | 0.02 | 0.02 | 0.02 | 81 | 1011.6 |
| 20260508123105 | 40 | 250 | 1.0 | 8.0 | 0.01 | 0.01 | 0.01 | 81 | 1011.6 |
| 20260508121559 | 40 | 0 | 2.0 | 6.0 | 0.00 | 0.00 | 0.00 | 81 | 1011.1 |
| 20260508114556 | 41 | 274 | 3.0 | 7.0 | 0.00 | 0.00 | 0.00 | 80 | 1010.6 |
| 20260508113110 | 41 | 310 | 1.0 | 4.0 | 0.00 | 0.00 | 0.00 | 81 | 1010.3 |
| 20260508111606 | 40 | 229 | 2.0 | 4.0 | 0.00 | 0.00 | 0.00 | 81 | 1010.1 |
| 20260508110103 | 40 | 196 | 2.0 | 5.0 | 0.00 | 0.00 | 0.00 | 81 | 1009.9 |
| 20260508104557 | 40 | 190 | 2.0 | 5.0 | 0.00 | 0.00 | 0.00 | 81 | 1010.0 |
| 20260508103058 | 40 | 182 | 1.0 | 4.0 | 0.00 | 0.00 | 0.00 | 81 | 1009.7 |
| 20260508101556 | 40 | 192 | 1.0 | 4.0 | 0.00 | 0.00 | 0.00 | 81 | 1009.8 |
| 20260508100058 | 40 | 225 | 2.0 | 5.0 | 0.00 | 0.00 | 0.00 | 81 | 1010.0 |
| 20260508094607 | 40 | 215 | 2.0 | 5.0 | 0.00 | 0.00 | 0.00 | 81 | 1010.2 |
| 20260508093100 | 39 | 208 | 2.0 | 6.0 | 0.00 | 0.00 | 0.00 | 80 | 1010.4 |
| 20260508091602 | 39 | 235 | 1.0 | 4.0 | 0.00 | 0.00 | 0.00 | 81 | 1010.5 |
| 20260508090057 | 39 | 0 | 0.0 | 3.0 | 0.00 | 0.00 | 0.00 | 80 | 1010.4 |
| 20260508084602 | 38 | 0 | 0.0 | 3.0 | 0.00 | 0.00 | 0.00 | 81 | 1010.3 |
| 20260508083102 | 38 | 0 | 0.0 | 2.0 | 0.00 | 0.00 | 0.00 | 81 | 1010.4 |
| 20260508081634 | 38 | 0 | 0.0 | 2.0 | 0.00 | 0.00 | 0.00 | 81 | 1010.1 |
| 20260508080058 | 38 | 0 | 0.0 | 4.0 | 0.00 | 0.00 | 0.00 | 81 | 1010.0 |
| 20260508074557 | 38 | 0 | 0.0 | 4.0 | 0.00 | 0.00 | 0.00 | 81 | 1010.2 |
| 20260508073104 | 38 | 0 | 0.0 | 3.0 | 0.00 | 0.00 | 0.00 | 81 | 1010.0 |
| 20260508071601 | 38 | 0 | 0.0 | 3.0 | 0.00 | 0.00 | 0.00 | 81 | 1010.1 |
| 20260508070106 | 38 | 0 | 0.0 | 2.0 | 0.00 | 0.00 | 0.00 | 81 | 1010.3 |
| 20260508064558 | 38 | 0 | 0.0 | 2.0 | 0.00 | 0.00 | 0.00 | 81 | 1010.3 |
| 20260508063059 | 39 | 246 | 0.0 | 3.0 | 0.00 | 0.00 | 0.00 | 81 | 1010.3 |
| 20260508061605 | 39 | 277 | 1.0 | 7.0 | 0.00 | 0.00 | 0.00 | 81 | 1010.4 |
| 20260508060106 | 40 | 204 | 1.0 | 8.0 | 0.00 | 0.00 | 0.00 | 81 | 1010.7 |
| 20260508054600 | 41 | 229 | 1.0 | 5.0 | 0.00 | 0.00 | 0.00 | 81 | 1010.6 |